Starlink 5498

operational
NORAD ID: 55633 Int'l Des: 2023-021 Owner: SPXS Country: US Constellation: starlink
LEOCIRCULAR

关于 Starlink 5498

正在加载描述...

实时位置

正在加载3D地球...

即将过境

高度历史

Altitude vs Time

uPlot chart will show altitude changes over time

两行轨道根数

1 55633U 23021F 25305.61096529 -.00001975 00000-0 -15777-3 0 9997
2 55633 69.9981 167.3705 0002692 271.6524 88.4326 14.98340185149111
Epoch: Nov 1, 2025 • Age: 10 hours

当前状态

高度 574.1 km
速度 7.57 km/s
星下点 7.02°N, 73.5°W
发射日期 Feb 17, 2023
运行时间 2.7 years
类型 internet

技术详情

分类 Payload
质量 305.00 kg
干质量 290.00 kg
总质量 305.00 kg
长度 0.20 m
直径 2.80 m
跨度 9.00 m
形状 Box + pan
制造商 SPXS
平台类型 Starlink
阶段状态 In Orbit
所有者/国家 SPXS/US

大型星座

Loading constellations...